STARLINK-34395 (64668 NORAD) Tracking and Keplerian Element Data

This shows tracking and keplerian element data for the satellite.

Feedback or suggestion? Click here.




ElementValue
Catalog64668
NameSTARLINK-34395
Epoch Orbit2805
Epoch Day353.82461734
Epoch Year2025
RAAN138.2046
Inclination53.1583
Eccentricity0.0002141
Argument of Perigee148.8208
Mean Anonmoly211.292
Mean Motion15.3021477
Decay Rate0.00023717
L11 64668U 25139E 25353.82461734 .00023717 00000+0 80995-3 0 9996
L22 64668 53.1583 138.2046 0002141 148.8208 211.2920 15.30214770 28052



Live tracking and technical data element details for STARLINK-34395 (NORAD 64668). STARLINK-34395 can be tracked NOW for your location showing map with azimuth and elevation plus other details from your city location.







IsCatalogInMostPopularTable: catalog: 64668, numindb: 12
Update: records affected: 1



GetName: 64668 STARLINK-34395

Hit Count: updated at: Mon, 20 Apr 2026 10:51:58 GMT